Powrót do katalogu

CZ-6A DEB

AktywnySSO
NORAD 56597·DEBRIS·🇨🇳 China

Wystrzelony Nov 11, 2022 z Taiyuan Satellite Launch Center

Loading…

Następne Przeloty (najbliższe 24 godziny)

TLE

ŚwieżeSource: Space-Track

Epoka: Sep 12, 2026, 19:26 UTC

1 56597U 22151ADV 26255.81024953  .00002250  00000-0  10010-2 0  9998
2 56597  98.9130 282.5055 0102846  10.0398 350.2801 14.21122798174810

Śledź CZ-6A DEB w czasie rzeczywistym z AllMySat

Download on the App Store